Location: Saint-Maurice-d�Ard�che
(44.5216°N, 4.4002°E)
Time: 09:58:18
(UTC+00:00)

Cosmos 1626 Rocket - Pass Details

Date: 30 March 2020
Orbit: 603 x 631 km, 82.5° (Epoch: 03 June)

Event Time Altitude Azimuth Distance (km) Brightness Sun altitude
Rises 19:03:41 0° 356° (N) 2,911 7.3 -10.6°
Reaches altitude 10° 19:06:00 10° 2° (N) 1,996 6.4 -11.0°
Maximum altitude 19:10:18 49° 78° (ENE) 800 3.8 -11.7°
Drops below altitude 10° 19:14:30 10° 153° (SSE) 1,963 5.7 -12.4°
Enters shadow 19:14:50 - 155° (SSE) 2,090 5.9 -12.5°
